| time (UTC) | temp F | wind direction | speed MPH | gust MPH | rain 1hr in | rain 24hr in | rain mn in | humidity % | barometer mb |
| 20260508181413 | 76 | 151 | 6.0 | 10.0 | 0.00 | 0.00 | 0.00 | 43 | 1011.2 |
| 20260508180912 | 76 | 276 | 2.0 | 10.0 | 0.00 | 0.00 | 0.00 | 45 | 1011.5 |
| 20260508180414 | 76 | 286 | 4.0 | 10.0 | 0.00 | 0.00 | 0.00 | 44 | 1011.3 |
| 20260508175913 | 76 | 143 | 4.0 | 11.0 | 0.00 | 0.00 | 0.00 | 47 | 1011.7 |
| 20260508175413 | 75 | 230 | 5.0 | 9.0 | 0.00 | 0.00 | 0.00 | 46 | 1011.6 |
| 20260508174913 | 75 | 148 | 7.0 | 10.0 | 0.00 | 0.00 | 0.00 | 47 | 1011.7 |
| 20260508174414 | 75 | 149 | 5.0 | 9.0 | 0.00 | 0.00 | 0.00 | 46 | 1011.8 |
| 20260508173912 | 75 | 153 | 6.0 | 12.0 | 0.00 | 0.00 | 0.00 | 49 | 1011.9 |
| 20260508173414 | 75 | 155 | 6.0 | 12.0 | 0.00 | 0.00 | 0.00 | 48 | 1011.9 |
| 20260508172914 | 75 | 65 | 4.0 | 8.0 | 0.00 | 0.00 | 0.00 | 48 | 1011.9 |
| 20260508172414 | 75 | 148 | 5.0 | 8.0 | 0.00 | 0.00 | 0.00 | 49 | 1011.9 |
| 20260508171913 | 75 | 138 | 4.0 | 9.0 | 0.00 | 0.00 | 0.00 | 49 | 1012.2 |
| 20260508171411 | 74 | 166 | 4.0 | 11.0 | 0.00 | 0.00 | 0.00 | 50 | 1012.2 |
| 20260508170912 | 74 | 127 | 4.0 | 9.0 | 0.00 | 0.00 | 0.00 | 51 | 1012.4 |
| 20260508170413 | 74 | 242 | 3.0 | 8.0 | 0.00 | 0.00 | 0.00 | 52 | 1012.6 |
| 20260508165913 | 73 | 244 | 4.0 | 10.0 | 0.00 | 0.00 | 0.00 | 53 | 1012.7 |
| 20260508165413 | 73 | 111 | 2.0 | 9.0 | 0.00 | 0.00 | 0.00 | 54 | 1012.7 |
| 20260508164912 | 73 | 171 | 7.0 | 10.0 | 0.00 | 0.00 | 0.00 | 54 | 1012.9 |
| 20260508164414 | 73 | 188 | 4.0 | 9.0 | 0.00 | 0.00 | 0.00 | 54 | 1012.9 |
| 20260508163914 | 73 | 153 | 4.0 | 9.0 | 0.00 | 0.00 | 0.00 | 54 | 1013.0 |
| 20260508163413 | 73 | 160 | 7.0 | 9.0 | 0.00 | 0.00 | 0.00 | 53 | 1013.0 |
| 20260508162912 | 72 | 147 | 3.0 | 10.0 | 0.00 | 0.00 | 0.00 | 55 | 1013.0 |
| 20260508162414 | 72 | 165 | 5.0 | 9.0 | 0.00 | 0.00 | 0.00 | 55 | 1013.0 |
| 20260508161912 | 72 | 169 | 6.0 | 9.0 | 0.00 | 0.00 | 0.00 | 55 | 1013.1 |
| 20260508161415 | 72 | 255 | 5.0 | 8.0 | 0.00 | 0.00 | 0.00 | 55 | 1013.1 |
| 20260508160914 | 71 | 290 | 4.0 | 9.0 | 0.00 | 0.00 | 0.00 | 56 | 1013.2 |
| 20260508160414 | 71 | 141 | 4.0 | 10.0 | 0.00 | 0.00 | 0.00 | 57 | 1013.2 |
| 20260508155911 | 72 | 170 | 5.0 | 8.0 | 0.00 | 0.00 | 0.00 | 56 | 1013.4 |
| 20260508155413 | 72 | 150 | 3.0 | 8.0 | 0.00 | 0.00 | 0.00 | 55 | 1013.4 |
| 20260508154912 | 73 | 140 | 3.0 | 9.0 | 0.00 | 0.00 | 0.00 | 53 | 1013.5 |
| 20260508154413 | 73 | 175 | 4.0 | 9.0 | 0.00 | 0.00 | 0.00 | 52 | 1013.5 |
| 20260508153913 | 72 | 83 | 2.0 | 8.0 | 0.00 | 0.00 | 0.00 | 55 | 1013.6 |
| 20260508153411 | 72 | 145 | 1.0 | 9.0 | 0.00 | 0.00 | 0.00 | 54 | 1013.7 |
| 20260508152913 | 72 | 83 | 2.0 | 6.0 | 0.00 | 0.00 | 0.00 | 55 | 1013.8 |
| 20260508152413 | 71 | 309 | 2.0 | 9.0 | 0.00 | 0.00 | 0.00 | 55 | 1013.9 |
| 20260508151913 | 71 | 164 | 4.0 | 7.0 | 0.00 | 0.00 | 0.00 | 56 | 1013.8 |
| 20260508151413 | 71 | 327 | 1.0 | 4.0 | 0.00 | 0.00 | 0.00 | 55 | 1013.9 |
| 20260508150914 | 69 | 251 | 1.0 | 8.0 | 0.00 | 0.00 | 0.00 | 57 | 1013.9 |
| 20260508150416 | 69 | 43 | 2.0 | 8.0 | 0.00 | 0.00 | 0.00 | 56 | 1013.9 |
| 20260508145911 | 69 | 306 | 2.0 | 6.0 | 0.00 | 0.00 | 0.00 | 59 | 1014.1 |
| 20260508145413 | 69 | 229 | 4.0 | 6.0 | 0.00 | 0.00 | 0.00 | 58 | 1014.0 |
| 20260508144913 | 68 | 345 | 2.0 | 10.0 | 0.00 | 0.00 | 0.00 | 61 | 1014.0 |
| 20260508144411 | 68 | 350 | 2.0 | 7.0 | 0.00 | 0.00 | 0.00 | 60 | 1014.0 |
| 20260508143913 | 66 | 301 | 3.0 | 7.0 | 0.00 | 0.00 | 0.00 | 62 | 1014.1 |
| 20260508143412 | 66 | 310 | 3.0 | 8.0 | 0.00 | 0.00 | 0.00 | 62 | 1014.1 |
| 20260508142914 | 65 | 309 | 4.0 | 8.0 | 0.00 | 0.00 | 0.00 | 65 | 1014.1 |
| 20260508142413 | 65 | 254 | 3.0 | 8.0 | 0.00 | 0.00 | 0.00 | 64 | 1014.1 |
| 20260508141914 | 64 | 173 | 5.0 | 8.0 | 0.00 | 0.00 | 0.00 | 65 | 1014.0 |
| 20260508141413 | 64 | 283 | 3.0 | 7.0 | 0.00 | 0.00 | 0.00 | 66 | 1014.1 |
| 20260508140913 | 63 | 45 | 1.0 | 6.0 | 0.00 | 0.00 | 0.00 | 69 | 1014.0 |
| 20260508140412 | 62 | 9 | 4.0 | 6.0 | 0.00 | 0.00 | 0.00 | 69 | 1014.0 |
| 20260508135913 | 62 | 167 | 2.0 | 5.0 | 0.00 | 0.00 | 0.00 | 71 | 1014.0 |
| 20260508135413 | 61 | 339 | 3.0 | 8.0 | 0.00 | 0.00 | 0.00 | 70 | 1014.1 |
| 20260508134915 | 60 | 180 | 5.0 | 9.0 | 0.00 | 0.00 | 0.00 | 72 | 1014.0 |
| 20260508134417 | 60 | 156 | 4.0 | 6.0 | 0.00 | 0.00 | 0.00 | 74 | 1014.0 |
| 20260508133913 | 59 | 186 | 3.0 | 9.0 | 0.00 | 0.00 | 0.00 | 74 | 1014.1 |
| 20260508133413 | 59 | 151 | 2.0 | 7.0 | 0.00 | 0.00 | 0.00 | 75 | 1014.1 |
| 20260508132913 | 58 | 145 | 4.0 | 6.0 | 0.00 | 0.00 | 0.00 | 76 | 1014.1 |
| 20260508132413 | 58 | 156 | 2.0 | 6.0 | 0.00 | 0.00 | 0.00 | 77 | 1014.2 |
| 20260508131914 | 57 | 285 | 1.0 | 4.0 | 0.00 | 0.00 | 0.00 | 78 | 1014.2 |
| 20260508131413 | 56 | 153 | 1.0 | 4.0 | 0.00 | 0.00 | 0.00 | 81 | 1014.2 |
| 20260508130915 | 55 | 216 | 3.0 | 5.0 | 0.00 | 0.00 | 0.00 | 81 | 1014.3 |
| 20260508130413 | 55 | 187 | 1.0 | 4.0 | 0.00 | 0.00 | 0.00 | 81 | 1014.3 |
| 20260508125913 | 55 | 173 | 2.0 | 4.0 | 0.00 | 0.00 | 0.00 | 82 | 1014.2 |
| 20260508125413 | 54 | 140 | 2.0 | 4.0 | 0.00 | 0.00 | 0.00 | 83 | 1014.2 |
| 20260508124914 | 53 | 152 | 3.0 | 4.0 | 0.00 | 0.00 | 0.00 | 85 | 1014.1 |
| 20260508124414 | 52 | 153 | 1.0 | 3.0 | 0.00 | 0.00 | 0.00 | 87 | 1014.1 |
| 20260508123533 | 50 | 146 | 1.0 | 3.0 | 0.00 | 0.00 | 0.00 | 89 | 1014.1 |
| 20260508122913 | 49 | 150 | 1.0 | 2.0 | 0.00 | 0.00 | 0.00 | 91 | 1014.1 |
| 20260508122412 | 49 | 159 | 0.0 | 2.0 | 0.00 | 0.00 | 0.00 | 93 | 1014.1 |
| 20260508121912 | 48 | 161 | 0.0 | 2.0 | 0.00 | 0.00 | 0.00 | 94 | 1014.1 |
| 20260508121413 | 48 | 153 | 0.0 | 2.0 | 0.00 | 0.00 | 0.00 | 96 | 1014.2 |
| 20260508120915 | 48 | 0 | 0.0 | 0.0 | 0.00 | 0.00 | 0.00 | 98 | 1014.2 |
| 20260508120414 | 47 | 0 | 0.0 | 0.0 | 0.00 | 0.00 | 0.00 | 99 | 1014.2 |
| 20260508115913 | 46 | 0 | 0.0 | 0.0 | 0.00 | 0.00 | 0.00 | 99 | 1014.3 |
| 20260508115413 | 45 | 0 | 0.0 | 0.0 | 0.00 | 0.00 | 0.00 | 99 | 1014.3 |
| 20260508114913 | 44 | 0 | 0.0 | 0.0 | 0.00 | 0.00 | 0.00 | 99 | 1014.2 |
| 20260508114411 | 44 | 0 | 0.0 | 0.0 | 0.00 | 0.00 | 0.00 | 99 | 1014.1 |
| 20260508113914 | 43 | 0 | 0.0 | 1.0 | 0.00 | 0.00 | 0.00 | 99 | 1014.1 |
| 20260508113413 | 43 | 21 | 0.0 | 1.0 | 0.00 | 0.00 | 0.00 | 99 | 1014.1 |
| 20260508112912 | 43 | 0 | 0.0 | 1.0 | 0.00 | 0.00 | 0.00 | 99 | 1014.0 |
| 20260508112413 | 43 | 355 | 0.0 | 2.0 | 0.00 | 0.00 | 0.00 | 99 | 1013.9 |
| 20260508111913 | 43 | 329 | 1.0 | 2.0 | 0.00 | 0.00 | 0.00 | 99 | 1013.9 |
| 20260508111411 | 43 | 0 | 0.0 | 1.0 | 0.00 | 0.00 | 0.00 | 99 | 1013.8 |
| 20260508110913 | 43 | 315 | 0.0 | 1.0 | 0.00 | 0.00 | 0.00 | 99 | 1013.8 |
| 20260508110411 | 43 | 329 | 0.0 | 2.0 | 0.00 | 0.00 | 0.00 | 99 | 1013.8 |
| 20260508105912 | 43 | 0 | 0.0 | 2.0 | 0.00 | 0.00 | 0.00 | 99 | 1013.8 |
| 20260508105413 | 43 | 251 | 0.0 | 2.0 | 0.00 | 0.00 | 0.00 | 99 | 1013.8 |
| 20260508104913 | 43 | 327 | 0.0 | 2.0 | 0.00 | 0.00 | 0.00 | 99 | 1013.8 |
| 20260508104412 | 43 | 344 | 0.0 | 1.0 | 0.00 | 0.00 | 0.00 | 99 | 1013.8 |
| 20260508103913 | 43 | 340 | 0.0 | 2.0 | 0.00 | 0.00 | 0.00 | 99 | 1013.8 |
| 20260508103412 | 43 | 352 | 1.0 | 2.0 | 0.00 | 0.00 | 0.00 | 99 | 1013.8 |
| 20260508102913 | 43 | 0 | 0.0 | 1.0 | 0.00 | 0.00 | 0.00 | 99 | 1013.7 |
| 20260508102413 | 43 | 0 | 0.0 | 2.0 | 0.00 | 0.00 | 0.00 | 99 | 1013.7 |
| 20260508101911 | 43 | 325 | 0.0 | 2.0 | 0.00 | 0.00 | 0.00 | 99 | 1013.6 |
| 20260508101414 | 43 | 350 | 1.0 | 2.0 | 0.00 | 0.00 | 0.00 | 99 | 1013.6 |
| 20260508100911 | 43 | 356 | 0.0 | 2.0 | 0.00 | 0.00 | 0.00 | 99 | 1013.6 |
| 20260508100411 | 43 | 8 | 0.0 | 2.0 | 0.00 | 0.00 | 0.00 | 99 | 1013.7 |
| 20260508095913 | 43 | 349 | 0.0 | 1.0 | 0.00 | 0.00 | 0.00 | 99 | 1013.6 |
| 20260508095413 | 43 | 0 | 0.0 | 2.0 | 0.00 | 0.00 | 0.00 | 99 | 1013.6 |
| 20260508094912 | 43 | 339 | 1.0 | 2.0 | 0.00 | 0.00 | 0.00 | 99 | 1013.5 |
| 20260508094411 | 43 | 350 | 1.0 | 2.0 | 0.00 | 0.00 | 0.00 | 99 | 1013.6 |
| 20260508093913 | 44 | 0 | 0.0 | 1.0 | 0.00 | 0.00 | 0.00 | 99 | 1013.6 |
| 20260508093411 | 44 | 28 | 0.0 | 2.0 | 0.00 | 0.00 | 0.00 | 99 | 1013.5 |
| 20260508092913 | 43 | 0 | 0.0 | 2.0 | 0.00 | 0.00 | 0.00 | 99 | 1013.5 |
| 20260508092412 | 43 | 337 | 0.0 | 2.0 | 0.00 | 0.00 | 0.00 | 99 | 1013.5 |
| 20260508091913 | 44 | 331 | 0.0 | 1.0 | 0.00 | 0.00 | 0.00 | 99 | 1013.5 |
| 20260508091413 | 44 | 0 | 0.0 | 1.0 | 0.00 | 0.00 | 0.00 | 99 | 1013.5 |
| 20260508090911 | 44 | 321 | 0.0 | 2.0 | 0.00 | 0.00 | 0.00 | 99 | 1013.5 |
| 20260508090413 | 44 | 324 | 0.0 | 1.0 | 0.00 | 0.00 | 0.00 | 99 | 1013.5 |
| 20260508085914 | 44 | 350 | 0.0 | 2.0 | 0.00 | 0.00 | 0.00 | 99 | 1013.6 |
| 20260508085412 | 44 | 332 | 1.0 | 2.0 | 0.00 | 0.00 | 0.00 | 99 | 1013.7 |
| 20260508084913 | 44 | 347 | 0.0 | 2.0 | 0.00 | 0.00 | 0.00 | 99 | 1013.7 |
| 20260508084412 | 44 | 353 | 1.0 | 2.0 | 0.00 | 0.00 | 0.00 | 99 | 1013.6 |
| 20260508083912 | 44 | 0 | 0.0 | 1.0 | 0.00 | 0.00 | 0.00 | 99 | 1013.6 |
| 20260508083411 | 44 | 354 | 1.0 | 2.0 | 0.00 | 0.00 | 0.00 | 100 | 1013.7 |
| 20260508082913 | 44 | 358 | 0.0 | 1.0 | 0.00 | 0.00 | 0.00 | 100 | 1013.7 |
| 20260508082413 | 44 | 340 | 1.0 | 2.0 | 0.00 | 0.00 | 0.00 | 100 | 1013.8 |
| 20260508081911 | 44 | 355 | 1.0 | 2.0 | 0.00 | 0.00 | 0.00 | 100 | 1013.9 |
| 20260508081413 | 44 | 347 | 0.0 | 2.0 | 0.00 | 0.00 | 0.00 | 100 | 1014.0 |
| 20260508080911 | 44 | 357 | 2.0 | 2.0 | 0.00 | 0.00 | 0.00 | 100 | 1014.0 |
| 20260508080413 | 44 | 0 | 1.0 | 2.0 | 0.00 | 0.00 | 0.00 | 100 | 1014.0 |
| 20260508075912 | 44 | 352 | 1.0 | 2.0 | 0.00 | 0.00 | 0.00 | 100 | 1014.1 |
| 20260508075413 | 44 | 356 | 0.0 | 2.0 | 0.00 | 0.00 | 0.00 | 99 | 1014.1 |
| 20260508074913 | 44 | 0 | 1.0 | 2.0 | 0.00 | 0.00 | 0.00 | 99 | 1014.2 |
| 20260508074414 | 44 | 354 | 2.0 | 2.0 | 0.00 | 0.00 | 0.00 | 99 | 1014.2 |
| 20260508073911 | 44 | 355 | 2.0 | 2.0 | 0.00 | 0.00 | 0.00 | 99 | 1014.1 |
| 20260508073412 | 44 | 348 | 2.0 | 2.0 | 0.00 | 0.00 | 0.00 | 99 | 1014.2 |
| 20260508072911 | 45 | 0 | 0.0 | 1.0 | 0.00 | 0.00 | 0.00 | 99 | 1014.5 |
| 20260508072412 | 45 | 0 | 0.0 | 0.0 | 0.00 | 0.00 | 0.00 | 99 | 1014.5 |
| 20260508071911 | 45 | 0 | 0.0 | 1.0 | 0.00 | 0.00 | 0.00 | 99 | 1014.3 |
| 20260508071413 | 45 | 340 | 0.0 | 2.0 | 0.00 | 0.00 | 0.00 | 99 | 1014.5 |
| 20260508070915 | 45 | 347 | 1.0 | 2.0 | 0.00 | 0.00 | 0.00 | 99 | 1014.6 |
| 20260508070413 | 45 | 354 | 1.0 | 2.0 | 0.00 | 0.00 | 0.00 | 99 | 1014.6 |
| 20260508065911 | 45 | 0 | 0.0 | 1.0 | 0.00 | 0.00 | 0.00 | 99 | 1014.8 |
| 20260508065412 | 44 | 332 | 0.0 | 2.0 | 0.00 | 0.00 | 0.00 | 98 | 1014.8 |
| 20260508064913 | 45 | 358 | 1.0 | 2.0 | 0.00 | 0.00 | 0.00 | 98 | 1014.8 |
| 20260508064411 | 44 | 0 | 0.0 | 4.0 | 0.00 | 0.00 | 0.00 | 98 | 1014.8 |
| 20260508063912 | 45 | 343 | 1.0 | 4.0 | 0.00 | 0.00 | 0.00 | 98 | 1014.7 |
| 20260508063420 | 45 | 0 | 0.0 | 2.0 | 0.00 | 0.00 | 0.00 | 97 | 1014.8 |
| 20260508062914 | 45 | 0 | 0.0 | 0.0 | 0.00 | 0.00 | 0.00 | 97 | 1014.9 |
| 20260508062411 | 46 | 0 | 0.0 | 2.0 | 0.00 | 0.00 | 0.00 | 97 | 1014.9 |
| 20260508061913 | 46 | 0 | 0.0 | 2.0 | 0.00 | 0.00 | 0.00 | 97 | 1014.9 |
| 20260508061412 | 46 | 0 | 0.0 | 2.0 | 0.00 | 0.00 | 0.00 | 97 | 1015.0 |
| 20260508060912 | 46 | 0 | 0.0 | 2.0 | 0.00 | 0.00 | 0.00 | 97 | 1015.0 |
| 20260508060414 | 46 | 345 | 2.0 | 2.0 | 0.00 | 0.00 | 0.00 | 97 | 1015.0 |
| 20260508055913 | 46 | 0 | 0.0 | 2.0 | 0.00 | 0.00 | 0.00 | 96 | 1015.2 |
| 20260508055413 | 46 | 6 | 1.0 | 2.0 | 0.00 | 0.00 | 0.00 | 96 | 1015.1 |
| 20260508054911 | 46 | 332 | 0.0 | 2.0 | 0.00 | 0.00 | 0.00 | 97 | 1015.1 |
| 20260508054411 | 46 | 348 | 2.0 | 2.0 | 0.00 | 0.00 | 0.00 | 96 | 1015.1 |
| 20260508053911 | 46 | 0 | 0.0 | 0.0 | 0.00 | 0.00 | 0.00 | 96 | 1015.2 |
| 20260508053414 | 46 | 0 | 0.0 | 0.0 | 0.00 | 0.00 | 0.00 | 95 | 1015.1 |
| 20260508052911 | 46 | 0 | 0.0 | 1.0 | 0.00 | 0.00 | 0.00 | 95 | 1015.1 |
| 20260508052411 | 47 | 0 | 0.0 | 1.0 | 0.00 | 0.00 | 0.00 | 95 | 1015.2 |
| 20260508051911 | 47 | 308 | 0.0 | 1.0 | 0.00 | 0.00 | 0.00 | 95 | 1015.2 |
| 20260508051417 | 46 | 25 | 0.0 | 2.0 | 0.00 | 0.00 | 0.00 | 94 | 1015.3 |
| 20260508050911 | 47 | 39 | 1.0 | 2.0 | 0.00 | 0.00 | 0.00 | 94 | 1015.3 |
| 20260508050412 | 46 | 341 | 0.0 | 2.0 | 0.00 | 0.00 | 0.00 | 94 | 1015.3 |
| 20260508045911 | 46 | 341 | 0.0 | 2.0 | 0.00 | 0.00 | 0.00 | 92 | 1015.4 |
| 20260508045411 | 47 | 165 | 0.0 | 1.0 | 0.00 | 0.00 | 0.00 | 93 | 1015.5 |
| 20260508044913 | 47 | 0 | 0.0 | 1.0 | 0.00 | 0.00 | 0.00 | 92 | 1015.4 |
| 20260508044411 | 47 | 346 | 0.0 | 4.0 | 0.00 | 0.00 | 0.00 | 91 | 1015.4 |
| 20260508043912 | 47 | 0 | 0.0 | 1.0 | 0.00 | 0.00 | 0.00 | 91 | 1015.5 |
| 20260508043412 | 47 | 235 | 0.0 | 2.0 | 0.00 | 0.00 | 0.00 | 90 | 1015.4 |
| 20260508042911 | 47 | 2 | 0.0 | 2.0 | 0.00 | 0.00 | 0.00 | 90 | 1015.4 |
| 20260508042411 | 47 | 357 | 2.0 | 2.0 | 0.00 | 0.00 | 0.00 | 89 | 1015.5 |
| 20260508041911 | 47 | 324 | 0.0 | 2.0 | 0.00 | 0.00 | 0.00 | 89 | 1015.5 |
| 20260508041412 | 47 | 343 | 1.0 | 3.0 | 0.00 | 0.00 | 0.00 | 90 | 1015.5 |
| 20260508040911 | 48 | 0 | 0.0 | 2.0 | 0.00 | 0.00 | 0.00 | 90 | 1015.5 |
| 20260508040414 | 48 | 277 | 0.0 | 2.0 | 0.00 | 0.00 | 0.00 | 90 | 1015.5 |
| 20260508035911 | 48 | 156 | 1.0 | 2.0 | 0.00 | 0.00 | 0.00 | 90 | 1015.5 |
| 20260508035412 | 48 | 0 | 0.0 | 2.0 | 0.00 | 0.00 | 0.00 | 87 | 1015.5 |
| 20260508034912 | 48 | 357 | 0.0 | 2.0 | 0.00 | 0.00 | 0.00 | 87 | 1015.4 |
| 20260508034411 | 49 | 350 | 1.0 | 2.0 | 0.00 | 0.00 | 0.00 | 86 | 1015.5 |
| 20260508033913 | 49 | 0 | 0.0 | 1.0 | 0.00 | 0.00 | 0.00 | 86 | 1015.6 |
| 20260508033414 | 49 | 0 | 0.0 | 2.0 | 0.00 | 0.00 | 0.00 | 86 | 1015.6 |
| 20260508032913 | 49 | 347 | 1.0 | 2.0 | 0.00 | 0.00 | 0.00 | 86 | 1015.5 |
| 20260508032413 | 49 | 345 | 1.0 | 3.0 | 0.00 | 0.00 | 0.00 | 85 | 1015.5 |
| 20260508031912 | 49 | 346 | 0.0 | 5.0 | 0.00 | 0.00 | 0.00 | 86 | 1015.5 |
| 20260508031411 | 49 | 0 | 0.0 | 1.0 | 0.00 | 0.00 | 0.00 | 84 | 1015.6 |
| 20260508030914 | 50 | 353 | 0.0 | 2.0 | 0.00 | 0.00 | 0.00 | 84 | 1015.5 |
| 20260508030413 | 50 | 347 | 0.0 | 2.0 | 0.00 | 0.00 | 0.00 | 84 | 1015.5 |
| 20260508025911 | 50 | 346 | 1.0 | 1.0 | 0.00 | 0.00 | 0.00 | 83 | 1015.5 |
| 20260508025411 | 50 | 0 | 0.0 | 0.0 | 0.00 | 0.00 | 0.00 | 84 | 1015.5 |
| 20260508024911 | 50 | 0 | 0.0 | 1.0 | 0.00 | 0.00 | 0.00 | 82 | 1015.5 |
| 20260508024412 | 51 | 348 | 0.0 | 2.0 | 0.00 | 0.00 | 0.00 | 82 | 1015.4 |
| 20260508023913 | 51 | 339 | 1.0 | 2.0 | 0.00 | 0.00 | 0.00 | 82 | 1015.4 |
| 20260508023412 | 51 | 344 | 1.0 | 2.0 | 0.00 | 0.00 | 0.00 | 82 | 1015.3 |
| 20260508022912 | 51 | 349 | 2.0 | 2.0 | 0.00 | 0.00 | 0.00 | 81 | 1015.2 |
| 20260508022416 | 51 | 336 | 1.0 | 2.0 | 0.00 | 0.00 | 0.00 | 81 | 1015.2 |
| 20260508021911 | 51 | 343 | 2.0 | 3.0 | 0.00 | 0.00 | 0.00 | 81 | 1015.1 |
| 20260508021411 | 51 | 348 | 2.0 | 2.0 | 0.00 | 0.00 | 0.00 | 80 | 1015.0 |
| 20260508020913 | 52 | 345 | 2.0 | 2.0 | 0.00 | 0.00 | 0.00 | 79 | 1015.0 |
| 20260508020412 | 52 | 0 | 0.0 | 0.0 | 0.00 | 0.00 | 0.00 | 80 | 1015.0 |
| 20260508015911 | 52 | 0 | 0.0 | 2.0 | 0.00 | 0.00 | 0.00 | 80 | 1014.9 |
| 20260508015412 | 52 | 354 | 0.0 | 2.0 | 0.00 | 0.00 | 0.00 | 80 | 1014.8 |
| 20260508014911 | 53 | 352 | 2.0 | 2.0 | 0.00 | 0.00 | 0.00 | 79 | 1014.7 |
| 20260508014411 | 53 | 342 | 1.0 | 2.0 | 0.00 | 0.00 | 0.00 | 79 | 1014.7 |
| 20260508013911 | 53 | 352 | 2.0 | 2.0 | 0.00 | 0.00 | 0.00 | 78 | 1014.7 |
| 20260508013412 | 54 | 350 | 2.0 | 2.0 | 0.00 | 0.00 | 0.00 | 77 | 1014.6 |
| 20260508012912 | 55 | 350 | 1.0 | 2.0 | 0.00 | 0.00 | 0.00 | 76 | 1014.5 |
| 20260508012412 | 55 | 337 | 1.0 | 2.0 | 0.00 | 0.00 | 0.00 | 77 | 1014.5 |
| 20260508011911 | 55 | 350 | 2.0 | 2.0 | 0.00 | 0.00 | 0.00 | 75 | 1014.5 |
| 20260508011411 | 56 | 344 | 0.0 | 2.0 | 0.00 | 0.00 | 0.00 | 75 | 1014.5 |
| 20260508010911 | 56 | 353 | 1.0 | 2.0 | 0.00 | 0.00 | 0.00 | 74 | 1014.5 |
| 20260508010412 | 57 | 348 | 2.0 | 2.0 | 0.00 | 0.00 | 0.00 | 73 | 1014.5 |
| 20260508005911 | 58 | 348 | 2.0 | 2.0 | 0.00 | 0.00 | 0.00 | 72 | 1014.5 |
| 20260508005412 | 59 | 353 | 2.0 | 2.0 | 0.00 | 0.00 | 0.00 | 70 | 1014.5 |
| 20260508004911 | 60 | 348 | 1.0 | 3.0 | 0.00 | 0.00 | 0.00 | 69 | 1014.5 |
| 20260508004412 | 62 | 349 | 1.0 | 2.0 | 0.00 | 0.00 | 0.00 | 66 | 1014.5 |
| 20260508003911 | 63 | 245 | 0.0 | 2.0 | 0.00 | 0.00 | 0.00 | 63 | 1014.5 |
| 20260508003412 | 64 | 344 | 1.0 | 2.0 | 0.00 | 0.00 | 0.00 | 60 | 1014.5 |
| 20260508002911 | 65 | 16 | 0.0 | 2.0 | 0.00 | 0.00 | 0.00 | 57 | 1014.5 |
| 20260508002412 | 67 | 352 | 2.0 | 4.0 | 0.00 | 0.00 | 0.00 | 54 | 1014.3 |
| 20260508001912 | 68 | 331 | 0.0 | 2.0 | 0.00 | 0.00 | 0.00 | 52 | 1014.5 |
| 20260508001411 | 68 | 0 | 0.0 | 7.0 | 0.00 | 0.00 | 0.00 | 47 | 1014.5 |
| 20260508000912 | 68 | 31 | 2.0 | 7.0 | 0.00 | 0.00 | 0.00 | 45 | 1014.3 |
| 20260508000412 | 68 | 273 | 0.0 | 4.0 | 0.00 | 0.00 | 0.00 | 45 | 1014.3 |
| 20260507235911 | 68 | 326 | 1.0 | 4.0 | 0.00 | 0.00 | 0.00 | 45 | 1014.3 |
| 20260507235411 | 68 | 317 | 2.0 | 5.0 | 0.00 | 0.00 | 0.00 | 45 | 1014.3 |
| 20260507234911 | 68 | 330 | 1.0 | 9.0 | 0.00 | 0.00 | 0.00 | 46 | 1014.3 |
| 20260507234412 | 69 | 340 | 4.0 | 9.0 | 0.00 | 0.00 | 0.00 | 45 | 1014.3 |
| 20260507233911 | 69 | 319 | 3.0 | 4.0 | 0.00 | 0.00 | 0.00 | 45 | 1014.3 |
| 20260507224415 | 70 | 253 | 4.0 | 6.0 | 0.00 | 0.00 | 0.00 | 42 | 1014.7 |
| 20260507210912 | 71 | 213 | 2.0 | 5.0 | 0.00 | 0.00 | 0.00 | 39 | 1015.2 |
| 20260507210412 | 71 | 342 | 2.0 | 5.0 | 0.00 | 0.00 | 0.00 | 38 | 1015.2 |
| 20260507204913 | 72 | 268 | 2.0 | 4.0 | 0.00 | 0.00 | 0.00 | 39 | 1015.9 |
| 20260507203913 | 71 | 30 | 2.0 | 5.0 | 0.00 | 0.00 | 0.00 | 37 | 1015.6 |
| 20260507202911 | 71 | 330 | 3.0 | 9.0 | 0.00 | 0.00 | 0.00 | 39 | 1015.9 |
| 20260507202411 | 71 | 27 | 2.0 | 8.0 | 0.00 | 0.00 | 0.00 | 38 | 1015.8 |
| 20260507201913 | 71 | 321 | 4.0 | 8.0 | 0.00 | 0.00 | 0.00 | 37 | 1015.8 |
| 20260507201412 | 70 | 211 | 1.0 | 5.0 | 0.00 | 0.00 | 0.00 | 38 | 1015.8 |
| 20260507195912 | 71 | 343 | 3.0 | 11.0 | 0.00 | 0.00 | 0.00 | 38 | 1016.2 |
| 20260507195412 | 71 | 345 | 5.0 | 8.0 | 0.00 | 0.00 | 0.00 | 38 | 1016.0 |
| 20260507192414 | 70 | 322 | 5.0 | 12.0 | 0.00 | 0.00 | 0.00 | 37 | 1016.3 |
| 20260507191914 | 70 | 125 | 2.0 | 7.0 | 0.00 | 0.00 | 0.00 | 35 | 1016.3 |
| 20260507191411 | 70 | 15 | 4.0 | 10.0 | 0.00 | 0.00 | 0.00 | 36 | 1016.7 |
| 20260507190911 | 71 | 340 | 7.0 | 9.0 | 0.00 | 0.00 | 0.00 | 37 | 1016.4 |
| 20260507190412 | 70 | 346 | 4.0 | 7.0 | 0.00 | 0.00 | 0.00 | 36 | 1016.5 |
| 20260507185911 | 71 | 334 | 3.0 | 5.0 | 0.00 | 0.00 | 0.00 | 36 | 1016.6 |
| 20260507185412 | 69 | 232 | 2.0 | 7.0 | 0.00 | 0.00 | 0.00 | 38 | 1016.5 |
| 20260507184911 | 67 | 148 | 0.0 | 9.0 | 0.00 | 0.00 | 0.00 | 39 | 1016.5 |
| 20260507184412 | 67 | 193 | 4.0 | 10.0 | 0.00 | 0.00 | 0.00 | 40 | 1016.7 |
| 20260507183912 | 68 | 144 | 2.0 | 6.0 | 0.00 | 0.00 | 0.00 | 38 | 1016.5 |
| 20260507182413 | 68 | 306 | 1.0 | 8.0 | 0.00 | 0.00 | 0.00 | 37 | 1017.1 |
| 20260507181914 | 68 | 328 | 5.0 | 8.0 | 0.00 | 0.00 | 0.00 | 38 | 1017.0 |